Regional Weather Roundup
Issued by NWS

Home | Current Version | Previous Version | Text Only | Print | Product List | Glossary On
Versions: 1 2 3 4 5 6 7 8 9 10 11 12 13 14 15 16 17 18 19 20 21 22 23 24 25 26 27 28 29 30 31 32 33 34 35 36 37 38 39 40 41 42 43 44 45 46 47 48 49 50
000
ASUS43 KDTX 221310
RWRMI
MICHIGAN HOURLY REGIONAL WEATHER ROUNDUP
NATIONAL WEATHER SERVICE DETROIT/PONTIAC MI
800 AM EST WED FEB 22 2017

NOTE: "FAIR" INDICATES FEW OR NO CLOUDS BELOW 12,000 FEET WITH NO
SIGNIFICANT WEATHER AND/OR OBSTRUCTION TO VISIBILITY.

MIZ047>049-052>055-059>063-066>070-074>076-081>083-221400-
SOUTHEAST LOWER MICHIGAN

CITY           SKY/WX    TMP DP  RH WIND       PRES   REMARKS
ADRIAN         CLOUDY    48  48 100 SW6       29.88S FOG
ALMA           FOG       44  43  97 S6        29.82S VSB<1/4
ANN ARBOR      FOG       37  37 100 W3        29.87R VSB<1/4
BAD AXE        CLOUDY    41  41 100 S5        29.83F FOG
CARO           CLOUDY    44  44 100 CALM      29.82S FOG
DETROIT CITY   FAIR      48  47  96 SW5       29.87S FOG
DETROIT        FOG       47  46  97 S7        29.88S VSB 1
FLINT          FAIR      46  45  96 S7        29.84F FOG
GROSSE ILE     FOG       38  38  98 S5        29.87S VSB<1/4 WCI  35
HILLSDALE      FOG       46  46 100 S5        29.86S VSB 1/4
HOWELL         CLOUDY    48  46  93 S7        29.85S FOG

CITY           SKY/WX    TMP DP  RH WIND       PRES   REMARKS
JACKSON        LGT RAIN  51  48  89 SW7       29.85F FOG
LAMBERTVILLE   MOCLDY    55  52  90 SW5       29.88R FOG
LANSING        MOCLDY    49  46  90 SW8       29.84S FOG
LAPEER         FOG       34  34 100 CALM      29.84F VSB 3/4
MASON          CLOUDY    48  48 100 CALM      29.85S FOG
MONROE         FOG       42  42 100 CALM      29.87S VSB<1/4
MT. CLEMENS    MOCLDY    41  41 100 CALM      29.85S FOG
PONTIAC        MOCLDY    41  39  93 CALM      29.84F FOG
PORT HOPE        N/A     45  44  97 VRB5      29.80F
PORT HURON     FOG       41  41 100 S3        29.86F VSB<1/4
TRI CITIES     FOG       42  42 100 S6        29.82F VSB 1/8
MIDLAND        FOG       43  42  97 S3        29.81F VSB<1/4
TROY           CLOUDY    47  45  93 SW3       29.87F FOG
SAGINAW HB     CLOUDY    45  43  93 S6        29.81S FOG
$$
MIZ043>046-050>051-056>058-064>065-071>073-077>080-221400-
SOUTHWEST LOWER MICHIGAN

CITY           SKY/WX    TMP DP  RH WIND       PRES   REMARKS
BATTLE CREEK   CLOUDY    50  49  96 SW8       29.85S FOG
BENTON HARBOR  CLOUDY    53  50  89 S7        29.83F FOG
BIG RAPIDS     FOG       50  49  97 S5        29.77F VSB 1/4
COLDWATER      CLOUDY    51  51 100 SW6       29.86S FOG
FREMONT        FOG       50  50 100 S5        29.78S VSB<1/4
HOLLAND        FOG       50  49  96 S7        29.81F VSB 1
GRAND RAPIDS   CLOUDY    49  47  93 S6        29.81S FOG
IONIA          MOCLDY    46  46  99 S5        29.82S FOG
KALAMAZOO      CLOUDY    50  47  89 S7        29.85F FOG
LUDINGTON      MOCLDY    53  52  98 S8        29.75S FOG
MARSHALL       CLOUDY    50  50  98 S3        29.85S FOG
MOUNT PLEASANT FOG       44  43  98 CALM      29.80S VSB<1/4
MUSKEGON       FOG       48  48 100 S14       29.79F VSB 1/4
SOUTH HAVEN    CLOUDY    52  52 100 S6        29.82F FOG
$$
MIZ016>042-221400-
NORTHERN LOWER MICHIGAN

CITY           SKY/WX    TMP DP  RH WIND       PRES   REMARKS
ALPENA         FAIR      36  36 100 SE6       29.76F FOG     WCI  31
BEAVER ISLAND  FAIR      46  42  84 S9        29.69F
BELLAIRE       MOCLDY    38  37  96 CALM      29.74S
CADILLAC       SNOW      46  45  97 SW6       29.76S VSB<1/4
CHARLEVOIX     FAIR      47  44  88 S10       29.74S
FRANKFORT      FAIR      53  50  91 S5        29.72F FOG
GAYLORD        CLOUDY    43  40  89 SW8       29.73F FOG
GRAYLING       FOG       46  46 100 CALM      29.76F VSB 1/4
HARBOR SPRINGS FAIR      37  35  91 CALM      29.72S
HOUGHTON LAKE  FOG       45  45 100 S5        29.77F VSB<1/4
MANISTEE       FOG       52  52 100 S8        29.73F VSB 1/2
OSCODA         FOG       42  41  97 SW7       29.81R VSB 1/4
PELLSTON       FAIR      39  33  79 SE5       29.72S
ROGERS CITY    CLOUDY    43  39  86 S10       29.75S
TRAVERSE CITY  CLOUDY    51  49  92 SW5       29.72F FOG
$$
MIZ007>008-015-221400-
EASTERN UPPER MICHIGAN

CITY           SKY/WX    TMP DP  RH WIND       PRES   REMARKS
KINROSS        CLOUDY    34  33  96 E8        29.72S WCI  27
MACKINAC ISLAN FAIR      39  34  80 S6        29.71S
NEWBERRY       FOG       37  36  96 S12       29.67S VSB 1/4 WCI  29
S. S. MARIE    CLOUDY    35  34  96 E6        29.71F FOG     WCI  30
MUNISING         N/A     41  36  82 S12       29.64F
$$
MIZ004>006-011>014-085-221400-
CENTRAL UPPER MICHIGAN

CITY           SKY/WX    TMP DP  RH WIND       PRES   REMARKS
MANISTIQUE     FOG       35  34  97 S10       29.68S VSB 1/4 WCI  27
ESCANABA       FAIR      35  33  92 W3        29.67F
MENOMINEE      FAIR      40  36  86 SW7       29.68F
$$
MIZ001>003-009>011-084-221400-
WESTERN UPPER MICHIGAN

CITY           SKY/WX    TMP DP  RH WIND       PRES   REMARKS
IRON MOUNTAIN  FAIR      30  27  88 CALM      29.64S
HOUGHTON       FAIR      40  33  76 NW6       29.61S
COPPER HARBOR    N/A     41  34  76 CALM      29.62R
IRONWOOD       FAIR      35  34  96 S3        29.64S
$$

ABBREVIATIONS USED IN REMARKS
   TC - TEMPERATURE IN CELSIUS
  WCI - WIND CHILL INDEX
   HX - HEAT INDEX
  VSB - VISIBILITY





USA.gov is the U.S. government's official web portal to all federal, state and local government web resources and services.